Regional Weather Roundup
Issued by NWS

Home | Current Version | Previous Version | Graphics & Text | Print | Product List | Glossary On
Versions: 1 2 3 4 5 6 7 8 9 10 11 12 13 14 15 16 17 18 19 20 21 22 23 24 25 26 27 28 29 30 31 32 33 34 35 36 37 38 39 40 41 42 43 44 45 46 47 48 49 50
000
ASUS43 KBIS 281802
RWRND

NORTH DAKOTA REGIONAL WEATHER ROUNDUP
NATIONAL WEATHER SERVICE BISMARCK ND
100 PM CDT THU MAY 28 2015

NOTE: "FAIR" INDICATES FEW OR NO CLOUDS BELOW 12,000 FEET WITH NO
SIGNIFICANT WEATHER AND/OR OBSTRUCTIONS TO VISIBILITY.


NDZ001>003-009>011-017-281900-
NORTHWEST NORTH DAKOTA

CITY           SKY/WX    TMP DP  RH WIND       PRES   REMARKS
WILLISTON      MOSUNNY   71  56  58 N10       29.89F
6HR MIN TEMP:  54; 6HR MAX TEMP:  71;

MINOT          CLOUDY    69  56  62 NW10      29.85S
MINOT AFB      CLOUDY    70  68  92 NW12      29.84S
$$

NDZ018>021-031>035-040>046-281900-
SOUTHWEST NORTH DAKOTA

CITY           SKY/WX    TMP DP  RH WIND       PRES   REMARKS
BISMARCK       PTSUNNY   74  59  59 MISG      29.87S
6HR MIN TEMP:  59; 6HR MAX TEMP:  74; 6HR PCP: TRACE;

DICKINSON      PTSUNNY   70  53  54 W12G21    29.88F
GARRISON         N/A     70  58  65 NW10      29.86R
6HR MIN TEMP:  58; 6HR MAX TEMP:  72;

HETTINGER ARPT MOSUNNY   71  54  54 NW8       29.92S
$$

NDZ004>008-012>016-024-026-027-054-281900-
NORTHEAST NORTH DAKOTA

CITY           SKY/WX    TMP DP  RH WIND       PRES   REMARKS
GRAND FORKS    PTSUNNY   73  61  65 S16G22    29.84F
GRND FRKS AFB  PTSUNNY   74  62  66 S15       29.85F
DEVILS LAKE    PTSUNNY   72  59  64 SW7       29.83F
$$

NDZ022-023-025-028>030-036>039-047>053-281900-
SOUTHEAST NORTH DAKOTA

CITY           SKY/WX    TMP DP  RH WIND       PRES   REMARKS
FARGO          PTSUNNY   79  63  57 S23G35    29.84F
6HR MIN TEMP:  61; 6HR MAX TEMP:  79; 6HR PCP:  0.07;

JAMESTOWN      MOSUNNY   76  62  62 SW15      29.84F
$$



USA.gov is the U.S. government's official web portal to all federal, state and local government web resources and services.